Jefferson, NC

7:24 PM EDT on September 16, 2019 (GMT -0400)
Ashe County

Weather History for KGEV - May, 2019

Change the Weather History Date:

Monday, May 6, 2019

  Actual Average Record
Temperature  
Mean Temperature 59 °F -  
Max Temperature 69 °F 69 °F 81 °F (1969)
Min Temperature 49 °F 42 °F 30 °F (1973)
Degree Days  
Heating Degree Days 6    
Growing Degree Days 9 (Base 50)    
Moisture  
Dew Point 43 °F    
Average Humidity 63    
Maximum Humidity 96    
Minimum Humidity 24    
Precipitation  
Precipitation 0.00 in - - ()
Sea Level Pressure  
Sea Level Pressure 30.07 in    
Wind  
Wind Speed 3 mph (NNW)    
Max Wind Speed 9 mph    
Max Gust Speed -    
Visibility 10 miles    
Events      
Averages and records for this station are not official NWS values.
T = Trace of Precipitation, MM = Missing Value Source: NWS Daily Summary

Daily Weather History Graph

Daily Weather History Graph

Search for Another Location

Airport or City:

Astronomy

May. 06, 2019 Rise Set
Actual Time 6:27 AM EDT 8:17 PM EDT
Civil Twilight 5:59 AM EDT 8:45 PM EDT
Nautical Twilight 5:25 AM EDT 9:19 PM EDT
Astronomical Twilight 4:49 AM EDT 9:56 PM EDT
Moon 7:49 AM EDT (5/6) 10:12 PM EDT (5/6)
Length of Visible Light 14h 46m
Length of Day
13h 50m
Waxing Crescent, 3% of the Moon is Illuminated
May 6
Waxing Crescent
May 11
First Quarter
May 18
Full
May 26
Last Quarter
Jun 3
New

Hourly Weather History & Observations

Time (EDT) Temp. Dew Point Humidity Pressure Visibility Wind Dir Wind Speed Gust Speed Precip Events Conditions
12:05 AM 54.0 °F 50.2 °F 87% 29.95 in 10.0 mi NNW 5.8 mph - N/A   Clear
12:25 AM 54.1 °F 50.0 °F 86% 29.95 in 10.0 mi NW 3.5 mph - N/A   Clear
12:45 AM 53.8 °F 50.0 °F 87% 29.95 in 10.0 mi NW 4.6 mph - N/A   Clear
1:05 AM 54.5 °F 50.0 °F 85% 29.95 in 10.0 mi NW 6.9 mph - N/A   Clear
1:25 AM 54.3 °F 49.6 °F 84% 29.95 in 10.0 mi WNW 4.6 mph - N/A   Clear
1:45 AM 53.6 °F 49.5 °F 86% 29.95 in 10.0 mi NW 4.6 mph - N/A   Clear
2:05 AM 53.4 °F 49.3 °F 86% 29.95 in 10.0 mi Calm Calm - N/A   Clear
2:25 AM 52.9 °F 49.1 °F 87% 29.96 in 10.0 mi NW 3.5 mph - N/A   Clear
2:45 AM 52.7 °F 48.7 °F 86% 29.96 in 10.0 mi North 3.5 mph - N/A   Clear
3:05 AM 51.8 °F 49.1 °F 90% 29.96 in 10.0 mi NNW 3.5 mph - N/A   Clear
3:25 AM 52.0 °F 49.1 °F 90% 29.97 in 10.0 mi Calm Calm - N/A   Clear
3:45 AM 50.9 °F 49.1 °F 94% 29.97 in 10.0 mi North 3.5 mph - N/A   Clear
4:05 AM 50.9 °F 49.1 °F 94% 29.98 in 10.0 mi Calm Calm - N/A   Clear
4:25 AM 50.2 °F 49.1 °F 96% 29.99 in 10.0 mi North 3.5 mph - N/A   Clear
4:45 AM 50.4 °F 49.1 °F 95% 29.98 in 10.0 mi North 5.8 mph - N/A   Clear
5:05 AM 49.8 °F 48.6 °F 95% 30.00 in 10.0 mi NNW 4.6 mph - N/A   Clear
5:25 AM 49.6 °F 48.4 °F 95% 30.00 in 10.0 mi North 3.5 mph - N/A   Clear
5:45 AM 49.8 °F 48.2 °F 94% 30.00 in 10.0 mi NNE 4.6 mph - N/A   Clear
6:05 AM 49.6 °F 48.2 °F 95% 30.02 in 10.0 mi North 3.5 mph - N/A   Clear
6:25 AM 49.3 °F 48.2 °F 96% 30.03 in 10.0 mi NNE 3.5 mph - N/A   Clear
6:45 AM 49.6 °F 48.0 °F 94% 30.04 in 10.0 mi NNE 3.5 mph - N/A   Clear
7:05 AM 49.6 °F 48.2 °F 95% 30.04 in 10.0 mi NE 3.5 mph - N/A   Clear
7:25 AM 49.5 °F 48.2 °F 95% 30.05 in 10.0 mi Calm Calm - N/A   Scattered Clouds
7:45 AM 50.9 °F 48.7 °F 92% 30.06 in 10.0 mi Calm Calm - N/A   Scattered Clouds
8:05 AM 50.9 °F 48.6 °F 92% 30.06 in 10.0 mi Calm Calm - N/A   Scattered Clouds
8:25 AM 52.3 °F 48.9 °F 88% 30.08 in 10.0 mi Calm Calm - N/A   Mostly Cloudy
8:45 AM 54.1 °F 48.4 °F 81% 30.08 in 10.0 mi North 3.5 mph - N/A   Overcast
9:05 AM 54.9 °F 49.1 °F 81% 30.09 in 10.0 mi NNE 4.6 mph - N/A   Mostly Cloudy
9:25 AM 55.4 °F 50.0 °F 82% 30.09 in 10.0 mi North 4.6 mph - N/A   Overcast
9:45 AM 55.4 °F 50.0 °F 82% 30.09 in 10.0 mi NE 3.5 mph - N/A   Mostly Cloudy
10:05 AM 58.1 °F 51.6 °F 79% 30.09 in 10.0 mi ENE 3.5 mph - N/A   Scattered Clouds
10:25 AM 57.9 °F 48.9 °F 72% 30.09 in 10.0 mi Calm Calm - N/A   Mostly Cloudy
10:45 AM 59.9 °F 46.4 °F 61% 30.09 in 10.0 mi NNE 3.5 mph - N/A   Mostly Cloudy
11:05 AM 60.8 °F 46.4 °F 59% 30.09 in 10.0 mi North 4.6 mph - N/A   Scattered Clouds
11:25 AM 61.7 °F 45.7 °F 56% 30.09 in 10.0 mi NNE 6.9 mph - N/A   Clear
11:45 AM 62.2 °F 41.7 °F 47% 30.09 in 10.0 mi North 4.6 mph - N/A   Clear
12:05 PM 62.2 °F 44.8 °F 53% 30.09 in 10.0 mi Calm Calm - N/A   Scattered Clouds
12:25 PM 63.7 °F 39.4 °F 41% 30.10 in 10.0 mi NE 3.5 mph - N/A   Scattered Clouds
12:45 PM 64.4 °F 38.7 °F 39% 30.10 in 10.0 mi North 3.5 mph - N/A   Clear
1:05 PM 64.8 °F 33.8 °F 32% 30.09 in 10.0 mi Calm Calm - N/A   Clear
1:25 PM 66.0 °F 39.7 °F 38% 30.09 in 10.0 mi West 5.8 mph - N/A   Clear
1:45 PM 65.7 °F 38.8 °F 37% 30.09 in 10.0 mi West 4.6 mph - N/A   Clear
2:05 PM 66.6 °F 35.2 °F 31% 30.09 in 10.0 mi NW 3.5 mph - N/A   Clear
2:45 PM 68.5 °F 35.6 °F 30% 30.09 in 10.0 mi WNW 6.9 mph - N/A   Clear
3:05 PM 68.9 °F 36.1 °F 30% 30.09 in 10.0 mi SW 5.8 mph - N/A   Clear
3:25 PM 69.3 °F 31.5 °F 25% 30.09 in 10.0 mi WSW 9.2 mph - N/A   Clear
3:45 PM 68.5 °F 30.0 °F 24% 30.09 in 10.0 mi SW 3.5 mph - N/A   Clear
4:05 PM 69.6 °F 31.5 °F 24% 30.09 in 10.0 mi West 5.8 mph - N/A   Clear
4:25 PM 68.2 °F 33.3 °F 27% 30.09 in 10.0 mi Calm Calm - N/A   Clear
4:45 PM 69.4 °F 32.5 °F 26% 30.09 in 10.0 mi Calm Calm - N/A   Clear
5:05 PM 68.7 °F 33.1 °F 27% 30.09 in 10.0 mi NNW 3.5 mph - N/A   Clear
5:25 PM 69.1 °F 32.4 °F 26% 30.09 in 10.0 mi Calm Calm - N/A   Clear
5:45 PM 68.4 °F 35.2 °F 30% 30.10 in 10.0 mi NNW 4.6 mph - N/A   Clear
6:05 PM 68.9 °F 33.8 °F 27% 30.10 in 10.0 mi Calm Calm - N/A   Clear
6:25 PM 68.2 °F 35.6 °F 30% 30.10 in 10.0 mi Calm Calm - N/A   Clear
7:05 PM 68.0 °F 37.0 °F 32% 30.11 in 10.0 mi NNW 4.6 mph - N/A   Scattered Clouds
7:45 PM 64.4 °F 42.4 °F 45% 30.13 in 10.0 mi ENE 3.5 mph - N/A   Scattered Clouds
8:05 PM 62.8 °F 42.6 °F 48% 30.13 in 10.0 mi ENE 5.8 mph - N/A   Scattered Clouds
8:25 PM 62.6 °F 42.3 °F 47% 30.14 in 10.0 mi Calm Calm - N/A   Clear
8:45 PM 62.2 °F 41.9 °F 47% 30.15 in 10.0 mi NE 3.5 mph - N/A   Clear
9:05 PM 62.1 °F 41.5 °F 47% 30.16 in 10.0 mi Calm Calm - N/A   Clear
9:25 PM 61.2 °F 41.5 °F 48% 30.16 in 10.0 mi Calm Calm - N/A   Clear
9:45 PM 61.2 °F 41.0 °F 47% 30.17 in 10.0 mi Calm Calm - N/A   Clear
10:05 PM 61.0 °F 40.6 °F 47% 30.17 in 10.0 mi Calm Calm - N/A   Clear
10:25 PM 60.4 °F 41.0 °F 49% 30.18 in 10.0 mi Calm Calm - N/A   Clear
10:45 PM 60.6 °F 40.8 °F 48% 30.18 in 10.0 mi Calm Calm - N/A   Clear
11:05 PM 59.4 °F 41.9 °F 52% 30.19 in 10.0 mi Calm Calm - N/A   Scattered Clouds
11:25 PM 60.6 °F 41.0 °F 48% 30.19 in 10.0 mi Calm Calm - N/A   Scattered Clouds
11:45 PM 54.9 °F 42.8 °F 64% 30.18 in 10.0 mi Calm Calm - N/A   Clear